Regional Weather Roundup
Issued by NWS Jackson, KY

Home | Current Version | Previous Version | Graphics & Text | Print | Product List | Glossary Off
Versions: 1 2 3 4 5 6 7 8 9 10 11 12 13 14 15 16 17 18 19 20 21 22 23 24 25 26 27 28 29 30 31 32 33 34 35 36 37 38 39 40 41 42 43 44 45 46 47 48 49 50

000
ASUS43 KJKL 301010
RWRJKL

EAST KENTUCKY HOURLY WEATHER ROUNDUP
NATIONAL WEATHER SERVICE JACKSON KY
600 AM EDT SAT MAY 30 2015

NOTE: "FAIR" INDICATES FEW OR NO CLOUDS BELOW 12,000 FEET WITH
NO SIGNIFICANT WEATHER AND/OR OBSTRUCTIONS TO VISIBILITY.

* THESE REPORTS ARE NOT UNDER NWS QUALITY CONTROL AND MAY NOT
  REPORT WEATHER SUCH AS PRECIPITATION AND FOG.

KYZ079-080-083-085-087-088-110-112-115-119-120-301100
...EASTERN KENTUCKY...

CITY           SKY/WX    TMP DP  RH WIND       PRES   REMARKS
JACKSON        PTCLDY    67  62  84 S3        30.15R
LONDON         CLOUDY    68  62  81 CALM      30.14R
SOMERSET*      CLOUDY    68  63  83 S3        30.13S
MONTICELLO*    CLOUDY    71  66  84 S3        30.15R
MIDDLESBORO*   CLOUDY    64  64 100 CALM      30.17S
HARLAN APT*    CLOUDY    63  63 100 S3        30.18S VSB 1/2
HAZARD APT*    MOSUNNY   64  64 100 E3        30.15S
BLACK MTN*       N/A     61  59  94 S6          N/A
PIKEVILLE APT* MOCLDY    66  63  88 CALM      30.16S
BIG SANDY*     CLOUDY    68  65  92 CALM      30.16R
MOREHEAD APT*  CLOUDY    66  64  94 S6        30.14R
$$

KYZ035-036-041-042-044-050-067-078-099-301100
...CENTRAL KENTUCKY...

CITY           SKY/WX    TMP DP  RH WIND       PRES   REMARKS
MT STERLING*   CLOUDY    68  64  88 SW7       30.13R
FLEMING/MASON* PTCLDY    68  64  88 S5        30.12R
DANVILLE*      MOCLDY    66  63  88 SW5       30.12R
RICHMOND*      MOCLDY    70  63  78 S6        30.11R
LEXINGTON      CLOUDY    69  64  84 S7        30.10R
FRANKFORT      PTCLDY    69  63  81 S5        30.08R
$$

KYZ091>093-OHZ055-061-077-WVZ005-015-034-035-042-301100
...SOUTHERN OHIO/WEST VIRGINIA...

CITY           SKY/WX    TMP DP  RH WIND       PRES   REMARKS
COVINGTON      MOCLDY    68  65  90 S7        30.07R
COLUMBUS       MOCLDY    71  65  81 S8        30.06R
DAYTON         PTCLDY    70  66  87 S9        30.06R
WILMINGTON     PTCLDY    67  63  87 S7        30.07S
HUNTINGTON     MOCLDY    66  65  96 S7        30.12R
CHARLESTON     MOCLDY    64  63  96 CALM      30.14R
PINEVILLE*     CLOUDY    61  61 100 MISG      30.25R FOG
BECKLEY        MOCLDY    64  59  83 SE7       30.23R
BLUEFIELD      MOCLDY    66  59  78 CALM      30.25R
$$

VAZ002-007-008-TNZ017-027-036-066-071-301100
...SOUTHWEST VIRGINIA/EAST TENNESSEE...

CITY           SKY/WX    TMP DP  RH WIND       PRES   REMARKS
WISE*          CLEAR     61  61 100 S5        30.24R
JONESVILLE*    FOG       59  59 100 CALM      30.20S VSB<1/4
ABINGDON*      CLEAR     62  62  99 CALM      30.22S
BRISTOL        PTCLDY    59  59 100 CALM      30.19
KNOXVILLE      PTCLDY    62  61  96 NE3       30.15R
OAK RIDGE      MOCLDY    68  65  90 CALM      30.16R
CROSSVILLE     CLOUDY    69  61  75 S5        30.18R
NASHVILLE      CLEAR     68  64  87 S7        30.08S
$$

...KEY TO REMARKS...
VSB - VISIBILITY IN MILES
WCI - WIND CHILL INDEX
HX  - HEAT INDEX

$$


USA.gov is the U.S. government's official web portal to all federal, state and local government web resources and services.